Weather History for Andalusia, AL

Change the Weather History Date:

Sunday, February 3, 2013

  Actual Average (KCEW) Record (KCEW)
Temperature  
Mean Temperature 54 °F -  
Max Temperature 68 °F 61 °F 78 °F (1990)
Min Temperature 39 °F 39 °F 10 °F (1951)
Degree Days  
Heating Degree Days 12    
Growing Degree Days 4 (Base 50)    
Moisture  
Dew Point 37 °F    
Average Humidity 68    
Maximum Humidity 87    
Minimum Humidity 19    
Precipitation  
Precipitation 0.00 in - - ()
Sea Level Pressure  
Sea Level Pressure 30.18 in    
Wind  
Wind Speed 4 mph (NNW)    
Max Wind Speed 20 mph    
Max Gust Speed 25 mph    
Visibility 6 miles    
Events Fog , Rain    
Averages and records for this station are not official NWS values.
T = Trace of Precipitation, MM = Missing Value Source: NWS Daily Summary

Daily Weather History Graph

Daily Weather History Graph

Search for Another Location

Airport:

Trip Planner

Search our weather history database for the weather conditions in past years. The results will help you decide how hot, cold, wet, or windy it might be!

Date:

Astronomy

Feb. 03, 2013 Rise Set
Actual Time 6:36 AM CST 5:22 PM CST
Civil Twilight 6:11 AM CST 5:48 PM CST
Nautical Twilight 5:42 AM CST 6:17 PM CST
Astronomical Twilight 5:13 AM CST 6:45 PM CST
Moon 12:02 AM CST (2/3) 11:01 AM CST (2/3)
Length of Visible Light 11h 36m
Length of Day
10h 46m
Waning Gibbous, 48% of the Moon is Illuminated
Feb 3
Waning Gibbous
Feb 10
New
Feb 17
First Quarter
Feb 25
Full
Mar 4
Last Quarter

Hourly Weather History & Observations

Time (CST) Temp. Windchill Dew Point Humidity Pressure Visibility Wind Dir Wind Speed Gust Speed Precip Events Conditions
12:09 AM 51.8 °F - 46.4 °F 82% 30.18 in 9.0 mi North 5.8 mph - 0.00 in Rain Light Rain
12:56 AM 53.1 °F - 46.9 °F 80% 30.19 in 10.0 mi NNW 6.9 mph - 0.00 in   Overcast
1:06 AM 53.6 °F - 46.4 °F 77% 30.19 in 10.0 mi North 8.1 mph - N/A   Overcast
1:56 AM 52.0 °F - 46.0 °F 80% 30.18 in 10.0 mi North 5.8 mph - N/A   Mostly Cloudy
2:56 AM 52.0 °F - 45.0 °F 77% 30.19 in 10.0 mi North 9.2 mph - N/A   Mostly Cloudy
3:56 AM 48.9 °F - 43.0 °F 80% 30.19 in 10.0 mi NNE 4.6 mph - N/A   Partly Cloudy
4:50 AM 46.4 °F - 42.8 °F 87% 30.20 in 1.8 mi Calm Calm - N/A   Clear
4:52 AM 46.4 °F - 42.8 °F 87% 30.20 in 1.0 mi Calm Calm - N/A   Clear
4:56 AM 46.0 °F - 42.1 °F 86% 30.19 in 0.8 mi Calm Calm - N/A   Clear
5:07 AM 44.6 °F - 41.0 °F 87% 30.20 in 1.2 mi Calm Calm - N/A   Clear
5:12 AM 44.6 °F - 41.0 °F 87% 30.20 in 2.5 mi Calm Calm - N/A   Clear
5:33 AM 42.8 °F - 39.2 °F 87% 30.20 in 4.0 mi Calm Calm - N/A   Partly Cloudy
5:42 AM 42.8 °F - 39.2 °F 87% 30.20 in 2.5 mi Calm Calm - N/A   Mostly Cloudy
5:46 AM 42.8 °F - 37.4 °F 81% 30.21 in 1.2 mi Calm Calm - N/A   Haze
5:49 AM 42.8 °F - 37.4 °F 81% 30.21 in 0.8 mi Calm Calm - N/A   Haze
5:56 AM 43.0 °F - 37.9 °F 82% 30.20 in 0.2 mi Calm Calm - N/A   Haze
6:56 AM 39.9 °F - 36.0 °F 86% 30.22 in 0.2 mi Calm Calm - 0.00 in Fog , Rain Light Rain
7:07 AM 39.2 °F 35.0 °F 35.6 °F 87% 30.22 in 0.5 mi Variable 5.8 mph - 0.00 in Fog Fog
7:14 AM 39.2 °F - 35.6 °F 87% 30.22 in 0.2 mi Calm Calm - 0.00 in Fog , Rain Light Rain
7:35 AM 42.8 °F - 37.4 °F 81% 30.23 in 1.0 mi Calm Calm - 0.00 in Rain Light Rain
7:38 AM 42.8 °F - 39.2 °F 87% 30.23 in 1.5 mi Calm Calm - 0.00 in   Scattered Clouds
7:45 AM 44.6 °F - 39.2 °F 81% 30.23 in 3.0 mi Calm Calm - 0.00 in   Partly Cloudy
7:56 AM 46.0 °F - 42.1 °F 86% 30.23 in 5.0 mi Calm Calm - 0.00 in   Clear
8:56 AM 53.1 °F - 42.1 °F 66% 30.23 in 10.0 mi NW 3.5 mph - N/A   Clear
9:56 AM 59.0 °F - 34.0 °F 39% 30.22 in 10.0 mi NW 9.2 mph - N/A   Clear
10:56 AM 62.1 °F - 32.0 °F 32% 30.20 in 10.0 mi North 13.8 mph - N/A   Clear
11:56 AM 64.9 °F - 33.1 °F 31% 30.17 in 10.0 mi NNW 13.8 mph - N/A   Clear
12:56 PM 66.9 °F - 27.0 °F 22% 30.13 in 10.0 mi NNW 17.3 mph 23.0 mph N/A   Clear
1:56 PM 68.0 °F - 24.1 °F 19% 30.11 in 10.0 mi NW 19.6 mph 25.3 mph N/A   Clear
2:56 PM 66.9 °F - 27.0 °F 22% 30.09 in 10.0 mi WNW 12.7 mph - N/A   Clear
3:56 PM 66.9 °F - 27.0 °F 22% 30.10 in 10.0 mi NW 18.4 mph - N/A   Clear
4:56 PM 64.0 °F - 28.9 °F 27% 30.09 in 10.0 mi NW 9.2 mph - N/A   Clear
5:56 PM 55.9 °F - 30.9 °F 39% 30.09 in 10.0 mi Calm Calm - N/A   Clear
6:56 PM 53.1 °F - 33.1 °F 47% 30.11 in 10.0 mi Calm Calm - N/A   Clear
7:56 PM 48.9 °F - 34.0 °F 56% 30.12 in 10.0 mi Calm Calm - N/A   Clear
8:56 PM 46.0 °F - 35.1 °F 66% 30.12 in 10.0 mi Calm Calm - N/A   Clear
9:56 PM 43.0 °F - 35.1 °F 74% 30.13 in 10.0 mi Calm Calm - N/A   Clear
10:56 PM 42.1 °F - 34.0 °F 73% 30.12 in 10.0 mi Calm Calm - N/A   Clear
11:56 PM 41.0 °F - 34.0 °F 76% 30.12 in 10.0 mi Calm Calm - N/A   Clear